DAL1143 PANC-KSEA

Flight info

Callsign DAL1143
Flight time N/A
Altitude 35000
Route NOEND4 NOEND LAIRE BKA ANN VIXOR MARNR8
Aircraft A320/M-SDE3FGHIRWY/LB1

Departure

Time 2026-04-30 13:22
Airport Ted Stevens Anchorage International Airport (PANC)

Arrival

Time N/A
Airport Seattle–Tacoma International Airport (KSEA)
Time Latitude Longitude Altitude Speed Heading
2026-04-30 12:42 61.17222 -149.98396 108 ft 0 kts 358°
2026-04-30 13:13 61.17216 -149.98396 110 ft 3 kts 358°
2026-04-30 13:13 61.17193 -149.98395 111 ft 3 kts 359°
2026-04-30 13:13 61.17146 -149.98391 100 ft 3 kts 348°
2026-04-30 13:14 61.17126 -149.98376 113 ft 3 kts 318°
2026-04-30 13:14 61.17117 -149.98348 114 ft 1 kts 270°
2026-04-30 13:14 61.17117 -149.98347 114 ft 0 kts 270°
2026-04-30 13:18 61.17116 -149.98582 116 ft 11 kts 271°
2026-04-30 13:18 61.17117 -149.98792 115 ft 20 kts 272°
2026-04-30 13:19 61.17126 -149.99092 117 ft 21 kts 275°
2026-04-30 13:19 61.17125 -149.99338 120 ft 16 kts 270°
2026-04-30 13:19 61.17126 -149.99544 125 ft 11 kts 270°
2026-04-30 13:19 61.17125 -149.99684 127 ft 8 kts 269°
2026-04-30 13:20 61.17126 -149.99798 128 ft 9 kts 281°
2026-04-30 13:20 61.17179 -149.99888 127 ft 10 kts 346°
2026-04-30 13:20 61.17255 -149.99930 126 ft 13 kts 345°
2026-04-30 13:20 61.17349 -149.99982 134 ft 15 kts 345°
2026-04-30 13:21 61.17543 -150.00089 117 ft 62 kts 345°
2026-04-30 13:21 61.18230 -150.00474 126 ft 139 kts 345°
2026-04-30 13:21 61.19357 -150.01095 252 ft 187 kts 345°
2026-04-30 13:22 61.21655 -150.03344 2127 ft 184 kts 326°
2026-04-30 13:22 61.22774 -150.04958 2348 ft 208 kts 324°
2026-04-30 13:22 61.25347 -150.08781 3114 ft 241 kts 324°
2026-04-30 13:23 61.26735 -150.10805 3824 ft 246 kts 324°
2026-04-30 13:23 61.29917 -150.13090 5187 ft 254 kts 17°
2026-04-30 13:24 61.32671 -150.08698 6572 ft 255 kts 49°
2026-04-30 13:24 61.34861 -150.02851 7933 ft 257 kts 74°
2026-04-30 13:25 61.34664 -149.95611 8987 ft 265 kts 123°
2026-04-30 13:25 61.32219 -149.89782 10255 ft 274 kts 137°
2026-04-30 13:26 61.27909 -149.80157 11144 ft 326 kts 132°
2026-04-30 13:26 61.25888 -149.71428 12295 ft 350 kts 108°
2026-04-30 13:27 61.24643 -149.61472 13396 ft 363 kts 109°
2026-04-30 13:28 61.23005 -149.45738 15059 ft 379 kts 105°
2026-04-30 13:28 61.21971 -149.34870 16108 ft 388 kts 105°
2026-04-30 13:28 61.21451 -149.29332 16605 ft 394 kts 105°
2026-04-30 13:29 61.20390 -149.18053 17704 ft 403 kts 105°
2026-04-30 13:29 61.19283 -149.06526 18705 ft 411 kts 105°
2026-04-30 13:30 61.17559 -148.88944 20073 ft 422 kts 105°
2026-04-30 13:31 61.16371 -148.76943 20914 ft 428 kts 105°
2026-04-30 13:31 61.14531 -148.58636 22187 ft 437 kts 105°
2026-04-30 13:32 61.13085 -148.46357 23038 ft 439 kts 115°
2026-04-30 13:32 61.10454 -148.34984 23868 ft 440 kts 122°
2026-04-30 13:33 61.07648 -148.23657 24569 ft 445 kts 122°
2026-04-30 13:33 61.04818 -148.12245 25223 ft 448 kts 122°
2026-04-30 13:34 61.03393 -148.06509 25560 ft 450 kts 122°
2026-04-30 13:34 60.99558 -147.91173 26414 ft 454 kts 122°
2026-04-30 13:35 60.98101 -147.85386 26751 ft 456 kts 122°
2026-04-30 13:35 60.95163 -147.73766 27379 ft 459 kts 122°
2026-04-30 13:36 60.92195 -147.62075 27977 ft 463 kts 122°
2026-04-30 13:36 60.90703 -147.56201 28255 ft 464 kts 122°
2026-04-30 13:36 60.87687 -147.44415 28807 ft 468 kts 122°
2026-04-30 13:37 60.86166 -147.38507 29022 ft 469 kts 122°
2026-04-30 13:37 60.83124 -147.26726 29526 ft 472 kts 122°
2026-04-30 13:38 60.80037 -147.14818 29993 ft 475 kts 122°
2026-04-30 13:38 60.78484 -147.08841 30214 ft 476 kts 122°
2026-04-30 13:38 60.75355 -146.96861 30579 ft 478 kts 122°
2026-04-30 13:39 60.72203 -146.84875 31028 ft 478 kts 122°
2026-04-30 13:39 60.69058 -146.72961 31516 ft 476 kts 122°
2026-04-30 13:40 60.67486 -146.67030 31761 ft 475 kts 122°
2026-04-30 13:40 60.65916 -146.61114 32012 ft 474 kts 122°
2026-04-30 13:40 60.64344 -146.55216 32269 ft 473 kts 122°
2026-04-30 13:40 60.62771 -146.49333 32514 ft 472 kts 122°
2026-04-30 13:41 60.61198 -146.43464 32744 ft 472 kts 122°
2026-04-30 13:41 60.59623 -146.37612 32988 ft 471 kts 122°
2026-04-30 13:41 60.58047 -146.31775 33224 ft 470 kts 122°
2026-04-30 13:41 60.56471 -146.25951 33429 ft 470 kts 122°
2026-04-30 13:42 60.54897 -146.20142 33680 ft 469 kts 122°
2026-04-30 13:42 60.53324 -146.14351 33912 ft 468 kts 122°
2026-04-30 13:42 60.50181 -146.02821 34355 ft 466 kts 122°
2026-04-30 13:43 60.48629 -145.97141 34532 ft 466 kts 122°
2026-04-30 13:43 60.47054 -145.91399 34703 ft 466 kts 122°
2026-04-30 13:43 60.45475 -145.85662 34868 ft 466 kts 123°
2026-04-30 13:43 60.43892 -145.79934 35046 ft 466 kts 123°
2026-04-30 13:44 60.40726 -145.68499 35108 ft 465 kts 123°
2026-04-30 13:44 60.37562 -145.57116 35128 ft 464 kts 123°
2026-04-30 13:45 60.32803 -145.40104 35139 ft 464 kts 123°
2026-04-30 13:46 60.29620 -145.28791 35128 ft 464 kts 123°
2026-04-30 13:46 60.26430 -145.17517 35134 ft 463 kts 123°
2026-04-30 13:47 60.23225 -145.06273 35119 ft 463 kts 123°
2026-04-30 13:47 60.20022 -144.95045 35128 ft 463 kts 123°
2026-04-30 13:48 60.16813 -144.83844 35129 ft 462 kts 123°
2026-04-30 13:48 60.13587 -144.72680 35135 ft 462 kts 123°
2026-04-30 13:49 60.10370 -144.61621 35135 ft 462 kts 124°
2026-04-30 13:49 60.07128 -144.50505 35114 ft 462 kts 123°
2026-04-30 13:50 60.03878 -144.39404 35121 ft 462 kts 124°
2026-04-30 13:50 59.98985 -144.22789 35127 ft 462 kts 124°
2026-04-30 13:51 59.95708 -144.11739 35130 ft 462 kts 124°
2026-04-30 13:51 59.92420 -144.00711 35132 ft 462 kts 124°
2026-04-30 13:52 59.89124 -143.89704 35130 ft 462 kts 124°
2026-04-30 13:52 59.85822 -143.78717 35133 ft 462 kts 124°
2026-04-30 13:53 59.82534 -143.67826 35133 ft 462 kts 124°
2026-04-30 13:53 59.79213 -143.56889 35134 ft 462 kts 124°
2026-04-30 13:54 59.75883 -143.45975 35113 ft 462 kts 124°
2026-04-30 13:54 59.72547 -143.35086 35120 ft 462 kts 124°
2026-04-30 13:55 59.69201 -143.24207 35122 ft 462 kts 124°
2026-04-30 13:55 59.65846 -143.13347 35128 ft 462 kts 125°
2026-04-30 13:56 59.62479 -143.02517 35133 ft 462 kts 125°
2026-04-30 13:56 59.59105 -142.91717 35102 ft 462 kts 125°
2026-04-30 13:57 59.55721 -142.80944 35108 ft 462 kts 125°
2026-04-30 13:57 59.52360 -142.70250 35120 ft 462 kts 125°
2026-04-30 13:58 59.47259 -142.54142 35127 ft 462 kts 125°
2026-04-30 13:59 59.43845 -142.43437 35127 ft 462 kts 125°
2026-04-30 13:59 59.40410 -142.32751 35128 ft 463 kts 126°
2026-04-30 14:00 59.36968 -142.22067 35131 ft 463 kts 125°
2026-04-30 14:00 59.31802 -142.06062 35137 ft 463 kts 126°
2026-04-30 14:01 59.28339 -141.95432 35145 ft 463 kts 126°
2026-04-30 14:01 59.24867 -141.84827 35125 ft 463 kts 126°
2026-04-30 14:02 59.21394 -141.74233 35133 ft 463 kts 126°
2026-04-30 14:02 59.17914 -141.63648 35139 ft 463 kts 126°
2026-04-30 14:03 59.14416 -141.53104 35144 ft 463 kts 126°
2026-04-30 14:03 59.10913 -141.42588 35147 ft 463 kts 126°
2026-04-30 14:04 59.07397 -141.32093 35130 ft 463 kts 126°
2026-04-30 14:04 59.03877 -141.21612 35139 ft 463 kts 126°
2026-04-30 14:05 59.00353 -141.11142 35142 ft 463 kts 126°
2026-04-30 14:05 58.96819 -141.00697 35147 ft 463 kts 126°
2026-04-30 14:06 58.91515 -140.85150 35137 ft 463 kts 126°
2026-04-30 14:07 58.86176 -140.69574 35149 ft 463 kts 127°
2026-04-30 14:08 58.80814 -140.54061 35157 ft 463 kts 127°
2026-04-30 14:08 58.75410 -140.38618 35137 ft 463 kts 127°
2026-04-30 14:09 58.71779 -140.28392 35150 ft 463 kts 127°
2026-04-30 14:10 58.66314 -140.13085 35156 ft 463 kts 127°
2026-04-30 14:10 58.62665 -140.02900 35157 ft 463 kts 127°
2026-04-30 14:11 58.59010 -139.92738 35171 ft 463 kts 127°
2026-04-30 14:11 58.55347 -139.82594 35155 ft 463 kts 127°
2026-04-30 14:12 58.51677 -139.72476 35155 ft 463 kts 128°
2026-04-30 14:12 58.47997 -139.62384 35159 ft 462 kts 128°
2026-04-30 14:13 58.44341 -139.52386 35160 ft 462 kts 128°
2026-04-30 14:13 58.40653 -139.42334 35162 ft 462 kts 128°
2026-04-30 14:14 58.36965 -139.32299 35156 ft 462 kts 128°
2026-04-30 14:14 58.33258 -139.22308 35163 ft 462 kts 128°
2026-04-30 14:15 58.29542 -139.12354 35163 ft 461 kts 128°
2026-04-30 14:15 58.25826 -139.02417 35163 ft 461 kts 128°
2026-04-30 14:16 58.22112 -138.92496 35163 ft 461 kts 128°
2026-04-30 14:16 58.18385 -138.82601 35160 ft 461 kts 128°
2026-04-30 14:17 58.14654 -138.72729 35167 ft 461 kts 129°
2026-04-30 14:17 58.10913 -138.62875 35167 ft 461 kts 129°
2026-04-30 14:18 58.07196 -138.53105 35162 ft 461 kts 129°
2026-04-30 14:18 58.01563 -138.38411 35153 ft 460 kts 129°
2026-04-30 14:19 57.95916 -138.23770 35160 ft 460 kts 129°
2026-04-30 14:20 57.92146 -138.14040 35162 ft 460 kts 129°
2026-04-30 14:20 57.86481 -137.99491 35149 ft 460 kts 129°
2026-04-30 14:21 57.82699 -137.89830 35150 ft 459 kts 129°
2026-04-30 14:22 57.77008 -137.75379 35156 ft 459 kts 129°
2026-04-30 14:22 57.71307 -137.60970 35161 ft 459 kts 129°
2026-04-30 14:23 57.63674 -137.41848 35148 ft 459 kts 129°
2026-04-30 14:24 57.57934 -137.27556 35158 ft 459 kts 129°
2026-04-30 14:25 57.50258 -137.08560 35148 ft 459 kts 128°
2026-04-30 14:26 57.44485 -136.94371 35156 ft 459 kts 129°
2026-04-30 14:27 57.38692 -136.80231 35163 ft 459 kts 129°
2026-04-30 14:27 57.34822 -136.70833 35159 ft 459 kts 129°
2026-04-30 14:28 57.29662 -136.58361 35154 ft 458 kts 129°
2026-04-30 14:28 57.25160 -136.47516 35154 ft 457 kts 129°
2026-04-30 14:29 57.18026 -136.30440 35164 ft 457 kts 129°
2026-04-30 14:31 57.08301 -136.07378 35163 ft 457 kts 129°
2026-04-30 14:31 57.02429 -135.93555 35179 ft 458 kts 129°
2026-04-30 14:32 56.96542 -135.79761 35181 ft 458 kts 130°
2026-04-30 14:33 56.92611 -135.70601 35199 ft 457 kts 130°
2026-04-30 14:33 56.86704 -135.56897 35209 ft 457 kts 131°
2026-04-30 14:34 56.82796 -135.47734 35212 ft 457 kts 130°
2026-04-30 14:34 56.78949 -135.38495 35215 ft 457 kts 129°
2026-04-30 14:35 56.73183 -135.24693 35225 ft 455 kts 131°
2026-04-30 14:36 56.69326 -135.15568 35228 ft 454 kts 131°
2026-04-30 14:36 56.65489 -135.06544 35230 ft 454 kts 131°
2026-04-30 14:37 56.61628 -134.97495 35223 ft 453 kts 131°
2026-04-30 14:37 56.57768 -134.88465 35222 ft 452 kts 132°
2026-04-30 14:38 56.53918 -134.79481 35226 ft 451 kts 132°
2026-04-30 14:38 56.50066 -134.70536 35231 ft 450 kts 132°
2026-04-30 14:39 56.46211 -134.61625 35227 ft 449 kts 132°
2026-04-30 14:39 56.42361 -134.52735 35232 ft 449 kts 133°
2026-04-30 14:40 56.36574 -134.39458 35234 ft 448 kts 133°
2026-04-30 14:40 56.32710 -134.30637 35231 ft 448 kts 133°
2026-04-30 14:41 56.28841 -134.21835 35231 ft 448 kts 133°
2026-04-30 14:41 56.24992 -134.13120 35227 ft 448 kts 133°
2026-04-30 14:42 56.21117 -134.04365 35218 ft 447 kts 134°
2026-04-30 14:42 56.17242 -133.95642 35231 ft 446 kts 134°
2026-04-30 14:43 56.13366 -133.86955 35234 ft 446 kts 134°
2026-04-30 14:43 56.09493 -133.78287 35234 ft 445 kts 134°
2026-04-30 14:44 56.05620 -133.69637 35234 ft 445 kts 134°
2026-04-30 14:44 56.01738 -133.61033 35235 ft 444 kts 134°
2026-04-30 14:45 55.97857 -133.52469 35241 ft 443 kts 134°
2026-04-30 14:45 55.93977 -133.43937 35247 ft 442 kts 134°
2026-04-30 14:46 55.90107 -133.35422 35243 ft 442 kts 134°
2026-04-30 14:46 55.86259 -133.26982 35223 ft 441 kts 135°
2026-04-30 14:47 55.82384 -133.18543 35243 ft 440 kts 135°
2026-04-30 14:47 55.78515 -133.10139 35249 ft 439 kts 135°
2026-04-30 14:48 55.74651 -133.01762 35249 ft 438 kts 135°
2026-04-30 14:48 55.70784 -132.93416 35243 ft 437 kts 135°
2026-04-30 14:49 55.66916 -132.85101 35232 ft 436 kts 135°
2026-04-30 14:49 55.63053 -132.76826 35248 ft 435 kts 135°
2026-04-30 14:50 55.57263 -132.64494 35256 ft 434 kts 136°
2026-04-30 14:51 55.51475 -132.52224 35256 ft 433 kts 136°
2026-04-30 14:52 55.45713 -132.40013 35267 ft 430 kts 136°
2026-04-30 14:52 55.40000 -132.27994 35273 ft 427 kts 136°
2026-04-30 14:53 55.34270 -132.16020 35279 ft 426 kts 136°
2026-04-30 14:54 55.26652 -132.00185 35279 ft 423 kts 137°
2026-04-30 14:55 55.20966 -131.88410 35287 ft 421 kts 137°
2026-04-30 14:56 55.13396 -131.72844 35270 ft 419 kts 137°
2026-04-30 14:57 55.07728 -131.61265 35262 ft 417 kts 137°
2026-04-30 14:58 54.99411 -131.47643 35258 ft 409 kts 145°
2026-04-30 14:58 54.93025 -131.37823 35236 ft 408 kts 145°
2026-04-30 15:00 54.82388 -131.21579 35258 ft 406 kts 145°
2026-04-30 15:01 54.73906 -131.08735 35265 ft 406 kts 145°
2026-04-30 15:01 54.67525 -130.99102 35246 ft 406 kts 145°
2026-04-30 15:02 54.63264 -130.92698 35254 ft 406 kts 146°
2026-04-30 15:03 54.52605 -130.76776 35256 ft 406 kts 146°
2026-04-30 15:04 54.41934 -130.60919 35250 ft 405 kts 146°
2026-04-30 15:06 54.31245 -130.45171 35246 ft 405 kts 146°
2026-04-30 15:07 54.22678 -130.32611 35235 ft 406 kts 146°
2026-04-30 15:08 54.14125 -130.20150 35276 ft 406 kts 146°
2026-04-30 15:09 54.03367 -130.04584 35261 ft 406 kts 146°
2026-04-30 15:10 53.94741 -129.92196 35268 ft 406 kts 146°
2026-04-30 15:11 53.81780 -129.73673 35268 ft 406 kts 146°
2026-04-30 15:13 53.70977 -129.58347 35286 ft 407 kts 146°
2026-04-30 15:14 53.55782 -129.36988 35281 ft 406 kts 146°
2026-04-30 15:17 53.36197 -129.09753 35281 ft 407 kts 146°
2026-04-30 15:19 53.18711 -128.85735 35270 ft 407 kts 146°